Regional Weather Roundup
Issued by NWS Newport/Morehead, NC

Current Version | Previous Version | Text Only | Print | Product List | Glossary Off
Versions: 1 2 3 4 5 6 7 8 9 10 11 12 13 14 15 16 17 18 19 20 21 22 23 24 25 26 27 28 29 30 31 32 33 34 35 36 37 38 39 40 41 42 43 44 45 46 47 48 49 50
000 ASUS42 KMHX 050425 RWRMHX WEATHER ROUNDUP FOR EASTERN NORTH CAROLINA NATIONAL WEATHER SERVICE NEWPORT/MOREHEAD CITY NC 1200 AM EDT THU MAY 05 2016 NOTE: "FAIR" INDICATES FEW OR NO CLOUDS BELOW 12,000 FEET WITH NO SIGNIFICANT WEATHER AND/OR OBSTRUCTIONS TO VISIBILITY NCZ015>017-031-032-045>047-102-103-050500- NORTH COAST CITY SKY/WX TMP DP RH WIND PRES REMARKS EDENTON CLOUDY 60 60 100 NE3 29.64S ELIZABETH CITY CLOUDY 57 54 89 NE10 29.64F KITTY HAWK CLOUDY 55 55 97 NE5 29.62S MANTEO MOCLDY 56 56 97 NE9 29.63S $$ NCZ045>047-081-094-103-104-050500- CENTRAL COAST CITY SKY/WX TMP DP RH WIND PRES REMARKS FRISCO CLOUDY 60 58 92 NE12G18 29.61S SWANQUARTER NOT AVBL $$ NCZ095-097-098-100-101-050500- SOUTHERN COAST CITY SKY/WX TMP DP RH WIND PRES REMARKS BEAUFORT CLOUDY 66 64 93 NE8 29.59F CEDAR ISLAND NOT AVBL JACKSONVILLE PTCLDY 65 56 72 N6 29.58F PINEY ISLAND CLOUDY N/A N/A N/A NE13 29.60 WILMINGTON MOCLDY 65 60 84 SE3 29.59F $$ NCZ011>013-027>030-043-044-078>080-089-090>093-098-050500- COASTAL PLAIN CITY SKY/WX TMP DP RH WIND PRES REMARKS AHOSKIE CLOUDY 59 56 91 NE6 29.64S CLINTON PTCLDY 64 60 88 CALM 29.61F ELIZABETHTOWN MOCLDY 64 55 74 CALM 29.61F GOLDSBORO CLOUDY 64 62 94 N3 29.58F GREENVILLE MOCLDY 63 63 100 E5 29.64S HAVELOCK CLOUDY 66 64 93 NE6 29.61F KENANSVILLE MOCLDY 58 57 96 CALM 29.61F KINSTON CLEAR 59 58 94 CALM 29.60F NEW BERN CLOUDY 65 63 93 NE7 29.61F RICHLANDS MOCLDY 59 57 93 CALM 29.59F ROCKY MOUNT CLOUDY 62 59 90 CALM 29.61F WASHINGTON FOG 60 59 96 NE7 29.61F VSB 1 WHITEVILLE NOT AVBL $$ AMZ130-135-150-152-154-156-158-170-250-252-270-ANZ085-086-088-633-658-670-050500- MARINE OBSERVATIONS STATION/POSITION TIME TEMP WIND PRES WAVE SWELL AIR SEA DIR/SP/G HT/PER HT/PER (UTC) (F) (DEG/KT/KT) (MB) (FT/S) (FT/S) CHESAPEAKE LIGHT 0400 51 30/ 15/ 17 1004.6 64 E VA BEACH 0350 52 54 20/ 14/ 16 1003.0 4/ 7 3/ 7 DUCK 0400 55 60 30/ 12/ 12 1002.9 2 E DUCK 0311 59 N/A 3/ 5 OREGON INLET 0400 57 65 10/ 10/ 15 1002.8 13E OREGON INLT 0400 59 N/A 4/ 7 3/ 7 HATTERAS CG 0400 62 70 30/ 12/ 18 1002.2 DIAMOND BUOY 0350 62 70 20/ 16/ 17 1002.1 4/ 8 2/ 8 CAPE LOOKOUT 0400 65 30/ 14/ 16 1001.5 BEAUFORT LAB 0400 66 68 30/ 7/ 11 1001.2 30 SE NEW RVR IN 0325 72 N/A 4/ 7 27 SE WRIGHTSVLE 0408 71 72 320/ 6/ 8 1000.9 5 SE WRIGHTSVLE 0408 69 69 340/ 6/ 10 1002.4 225 S CAPE HAT 0350 74 74 200/ 12/ 16 1003.8 5/ 7 3/ 7 41 SE CHARLESTON 0350 73 74 320/ 17/ 21 1002.2 3/ 4 2/ 7 $$

USA.gov is the U.S. government's official web portal to all federal, state and local government web resources and services.